星链-35735(STARLINK-35735)

导读

STARLINK-35735是美国SpaceX公司星链星座的一颗卫星,于2025年10月28日发射入轨。星链星座旨在为全球提供高速低延迟宽带互联网服务,尤其覆盖传统基础设施匮乏的偏远地区,这颗卫星加入后进一步扩充了星链的网络容量与覆盖范围。截至2026年初,星链在轨运营卫星已超9600颗,服务覆盖超100个国家,拥有超过600万活跃用户,STARLINK-35735将助力星链继续提升全球网络服务的稳定性与速率。

Basic Information
目录编号:
66231
目录名称:
STARLINK-35735
国际标识:
2025-244AB
轨道中心:
EARTH
卫星名称:
星链-35735
卫星全名:
星链-35735(STARLINK-35735)
卫星状态:
在轨 (已飞行311 天)
发射日期:
2025-10-28 UTC
国别 :
美国 (US)
星等 :
--
Orbit Information
数据来源 国际轨道数据
星历时间: 2026-09-03T23:39:38+0800
17小时前
查看轨道信息
半长轴: 6840.832km
偏心率: 0.0001203
轨道倾角: 53.159°
近地点辐角 102.237°
升交点赤经 120.652°
平近点角 257.876°
近地点: 461.872km
远地点: 463.518km
周期: 93.848分钟
每日圈数: 15.344029
Detailed Information
固有亮度:
5
最大亮度:
2.5
卫星平台:
Starlink V1.0
覆盖范围:
全球
运营商:
太空探索技术公司
运营商所在国:
美国
制造商(研发单位):
太空探索技术公司
制造商所在国:
美国
使用方式:
暂无
Satellite Introduction
Starlink 计划是 SpaceX 推出的全球卫星互联网项目,通过发射低轨道卫星,为全球尤其是偏远地区提供高速、低延迟的互联网服务。自 2019 年起,Starlink 已部署数千颗卫星,旨在缩小全球数字鸿沟,推动互联网普及。该项目还为军事、航空等行业提供通信支持,带来广泛经济效益。
2D Orbit Map
3D Orbit Map
Orbit Altitude Analysis Chart
Orbit Inclination Analysis Chart
Orbit Comprehensive Analysis Chart
View Comprehensive Chart
Conjunction Data List
Event ID Objects TCA Miss Dist (km) Collision Risk Probability Collision Risk Index (CRI) Action
CDM_260905-105805-926906-623121
2026-09-05T
10:58:12+0000
1.253 km
极远距离
5.841855E-6 低风险 0.5
CDM_260905-214005-246506-623121
2026-09-05T
21:40:10+0000
2.735 km
极远距离
1.340828E-6 低风险 0.38
CDM_260830-153705-804306-623121
2026-08-30T
15:37:20+0000
2.785 km
极远距离
1.295185E-6 低风险 0.37
CDM_260903-022805-804306-623121
2026-09-03T
02:28:31+0000
2.956 km
极远距离
1.19862E-6 低风险 0.37
CDM_260830-153605-404306-623121
2026-08-30T
15:36:09+0000
2.949 km
极远距离
1.103184E-6 低风险 0.36
CDM_260905-123105-926906-623121
2026-09-05T
12:31:59+0000
2.791 km
极远距离
7.974259E-7 极低风险 0.33
CDM_260905-053105-085106-623121
2026-09-05T
05:31:32+0000
2.816 km
极远距离
6.433148E-7 极低风险 0.31